Regional Weather Roundup
Issued by NWS

Home | Current Version | Previous Version | Graphics & Text | Print | Product List | Glossary On
Versions: 1 2 3 4 5 6 7 8 9 10 11 12 13 14 15 16 17 18 19 20 21 22 23 24 25 26 27 28 29 30 31 32 33 34 35 36 37 38 39 40 41 42 43 44 45 46 47 48 49 50
000
ASUS43 KTOP 021959
RWRKS

WEATHER ROUNDUP FOR KANSAS
NATIONAL WEATHER SERVICE GOODLAND KS
200 PM CST FRI DEC 02 2016

NOTE:  "FAIR" INDICATES FEW OR NO CLOUDS BELOW 12,000 FEET WITH NO
SIGNIFICANT WEATHER AND/OR OBSTRUCTIONS TO VISIBILITY.

KSZ001>006-013>018-027>032-041>047-022100-
NORTHWEST KANSAS

CITY           SKY/WX    TMP DP  RH WIND       PRES   REMARKS
GOODLAND       CLOUDY    40  14  34 CALM      30.22S
HAYS           MOSUNNY   46  20  35 N6        30.24F
HILL CITY      MOSUNNY   45  19  35 CALM      30.25F
RUSSELL        MOSUNNY   47  22  37 N7        30.23F
$$

KSZ061>065-074>080-084>089-022100-
SOUTHWEST KANSAS

CITY           SKY/WX    TMP DP  RH WIND       PRES   REMARKS
DODGE CITY     SUNNY     50  12  21 NE9       30.20F
ELKHART          N/A     46  12  25 E10         N/A
GARDEN CITY    CLOUDY    50  12  21 VRB3      30.19F
GREAT BEND     SUNNY     49  17  28 CALM      30.23F
LIBERAL        SUNNY     48  16  27 E14       30.19S
$$

KSZ066>073-081>083-090>101-022100-
SOUTHEAST KANSAS

CITY           SKY/WX    TMP DP  RH WIND       PRES   REMARKS
CHANUTE        MOSUNNY   57  23  26 E8        30.23S
COFFEYVILLE    SUNNY     58  29  33 E9        30.20F
HUTCHINSON     SUNNY     50  24  36 E7        30.23F
MEDICINE LODGE   N/A     52  21  29 NE8       30.21F
NEWTON         CLOUDY    51  25  36 E7        30.23F
PARSONS        MOSUNNY   58  25  28 VRB6      30.22F
WICHITA INTL   PTSUNNY   53  22  29 NE3       30.21F
WICHITA JABRA  MOSUNNY   53  22  29 E9        30.21F
WINFIELD       SUNNY     56  24  29 NE14      30.20F
$$

KSZ007>012-019>026-033>040-048>060-102>105-022100-
NORTHEAST KANSAS

CITY           SKY/WX    TMP DP  RH WIND       PRES   REMARKS
CONCORDIA      SUNNY     44  27  51 E3        30.27R
EMPORIA        MOSUNNY   50  23  34 E7        30.25S
LAWRENCE       SUNNY     48  28  46 CALM      30.28R
MANHATTAN      SUNNY     48  26  42 CALM      30.27F
MARYSVILLE     SUNNY     45  28  53 CALM      30.27F
OLATHE IND     MOSUNNY   50  26  39 CALM      30.27R
OLATHE EXE     SUNNY     49  26  41 VRB5      30.27R
SALINA         MOSUNNY   47  25  42 N3        30.26F
TOPEKA BILLARD SUNNY     50  27  40 CALM      30.28S
TOPEKA FORBES  MOSUNNY   51  27  39 NE5       30.27S
$$



USA.gov is the U.S. government's official web portal to all federal, state and local government web resources and services.